DW8623 Weather Reports


Display with metric or nautical units.
time (UTC)temp
F
wind
direction
speed
MPH
gust
MPH
rain 1hr
in
rain 24hr
in
rain mn
in
humidity
%
barometer
mb
20260505075548 59 200 3.0 8.0 0.00 0.00 0.00 68 1010.8
20260505075046 59 184 3.0 8.0 0.00 0.00 0.00 68 1010.8
20260505074556 59 195 4.0 8.0 0.00 0.00 0.00 68 1010.8
20260505074048 59 195 3.0 5.0 0.00 0.00 0.00 68 1010.7
20260505073545 59 211 2.0 6.0 0.00 0.00 0.00 67 1010.6
20260505073058 59 209 2.0 6.0 0.00 0.00 0.00 67 1010.6
20260505072547 59 188 3.0 7.0 0.00 0.00 0.00 67 1010.5
20260505072049 59 211 3.0 7.0 0.00 0.00 0.00 67 1010.5
20260505071551 59 188 2.0 5.0 0.00 0.00 0.00 67 1010.5
20260505071045 60 217 2.0 5.0 0.00 0.00 0.00 67 1010.5
20260505070545 60 209 2.0 5.0 0.00 0.00 0.00 67 1010.6
20260505070051 60 184 3.0 5.0 0.00 0.00 0.00 66 1010.5
20260505065548 60 195 2.0 5.0 0.00 0.00 0.00 66 1010.6
20260505065046 60 200 3.0 5.0 0.00 0.00 0.00 66 1010.6
20260505064607 60 209 2.0 5.0 0.00 0.00 0.00 66 1010.6
20260505064046 60 195 3.0 7.0 0.00 0.00 0.00 65 1010.6
20260505063546 60 188 2.0 7.0 0.00 0.00 0.00 65 1010.7
20260505063054 60 195 2.0 7.0 0.00 0.00 0.00 65 1010.8
20260505062546 61 190 3.0 7.0 0.00 0.00 0.00 64 1010.8
20260505062045 61 209 2.0 4.0 0.00 0.00 0.00 63 1010.8
20260505061554 61 195 2.0 4.0 0.00 0.00 0.00 63 1010.7
20260505061046 61 209 2.0 5.0 0.00 0.00 0.00 62 1010.7
20260505060548 62 222 3.0 7.0 0.00 0.00 0.00 62 1010.8
20260505060058 62 205 2.0 7.0 0.00 0.00 0.00 62 1010.7
20260505055545 62 240 3.0 8.0 0.00 0.00 0.00 61 1010.8
20260505055046 62 239 3.0 11.0 0.00 0.00 0.00 61 1010.8
20260505054620 62 220 5.0 11.0 0.00 0.00 0.00 61 1010.8
20260505054045 63 220 6.0 14.0 0.00 0.00 0.00 60 1010.7
20260505053545 63 210 5.0 14.0 0.00 0.00 0.00 60 1010.9
20260505053058 63 217 6.0 14.0 0.00 0.00 0.00 60 1010.9
20260505052551 63 176 5.0 15.0 0.00 0.00 0.00 60 1010.9
20260505052047 63 180 8.0 15.0 0.00 0.00 0.00 60 1010.8
20260505051640 63 184 7.0 11.0 0.00 0.00 0.00 60 1010.7
20260505050545 63 232 6.0 13.0 0.00 0.00 0.00 59 1010.8
20260505041601 63 213 4.0 9.0 0.00 0.00 0.00 57 1010.4
20260505041048 63 188 4.0 9.0 0.00 0.00 0.00 57 1010.5
20260505040547 63 213 4.0 11.0 0.00 0.00 0.00 56 1010.6
20260505040104 63 189 4.0 11.0 0.00 0.00 0.00 56 1010.4
20260505035547 63 195 5.0 11.0 0.00 0.00 0.00 56 1010.5
20260505035045 63 228 5.0 11.0 0.00 0.00 0.00 56 1010.5
20260505034549 63 205 5.0 10.0 0.00 0.00 0.00 56 1010.4
20260505034046 63 213 4.0 10.0 0.00 0.00 0.00 56 1010.5
20260505033546 63 221 4.0 10.0 0.00 0.00 0.00 56 1010.5
20260505033050 63 205 4.0 9.0 0.00 0.00 0.00 55 1010.5
20260505032546 63 223 3.0 9.0 0.00 0.00 0.00 55 1010.5
20260505032049 63 200 4.0 9.0 0.00 0.00 0.00 55 1010.6
20260505031553 63 200 4.0 9.0 0.00 0.00 0.00 55 1010.6
20260505031045 63 186 4.0 9.0 0.00 0.00 0.00 55 1010.6
20260505030547 63 215 3.0 8.0 0.00 0.00 0.00 55 1010.6
20260505025546 63 182 3.0 8.0 0.00 0.00 0.00 55 1010.6
20260505025047 63 200 3.0 8.0 0.00 0.00 0.00 55 1010.6
20260505024551 63 209 3.0 5.0 0.00 0.00 0.00 54 1010.7
20260505024048 63 244 2.0 6.0 0.00 0.00 0.00 54 1010.7
20260505023547 63 161 3.0 6.0 0.00 0.00 0.00 54 1010.8
20260505023050 63 189 2.0 5.0 0.00 0.00 0.00 53 1010.7
20260505022548 63 187 2.0 5.0 0.00 0.00 0.00 53 1010.7
20260505022047 63 182 2.0 4.0 0.00 0.00 0.00 53 1010.7
20260505021555 64 195 2.0 4.0 0.00 0.00 0.00 52 1010.7
20260505021047 64 195 2.0 4.0 0.00 0.00 0.00 52 1010.7
20260505020545 64 186 1.0 3.0 0.00 0.00 0.00 51 1010.6
20260505020106 64 0 0.0 2.0 0.00 0.00 0.00 50 1010.6
20260505015546 65 0 0.0 3.0 0.00 0.00 0.00 50 1010.6
20260505015049 65 0 1.0 3.0 0.00 0.00 0.00 50 1010.6
20260505014554 65 190 0.0 3.0 0.00 0.00 0.00 49 1010.6
20260505014048 65 0 1.0 3.0 0.00 0.00 0.00 49 1010.6
20260505013551 65 200 1.0 3.0 0.00 0.00 0.00 49 1010.5
20260505013059 66 195 1.0 5.0 0.00 0.00 0.00 48 1010.3
20260505012548 66 181 2.0 5.0 0.00 0.00 0.00 48 1010.2
20260505012048 66 173 2.0 4.0 0.00 0.00 0.00 47 1010.1
20260505011600 66 184 2.0 4.0 0.00 0.00 0.00 47 1010.1
20260505011048 67 181 2.0 5.0 0.00 0.00 0.00 47 1010.0
20260505010548 67 187 2.0 5.0 0.00 0.00 0.00 46 1010.0
20260505010111 67 169 3.0 7.0 0.00 0.00 0.00 46 1009.9
20260505005548 67 174 3.0 7.0 0.00 0.00 0.00 46 1009.8
20260505005048 67 195 3.0 6.0 0.00 0.00 0.00 45 1009.8
20260505004557 68 179 2.0 9.0 0.00 0.00 0.00 45 1009.8
20260505004045 68 174 3.0 9.0 0.00 0.00 0.00 45 1009.7
20260505003546 68 189 3.0 8.0 0.00 0.00 0.00 45 1009.8
20260505003111 68 165 3.0 10.0 0.00 0.00 0.00 44 1009.7
20260505002548 69 173 4.0 10.0 0.00 0.00 0.00 44 1009.7
20260505002046 69 171 4.0 10.0 0.00 0.00 0.00 43 1009.5
20260505001555 69 182 4.0 10.0 0.00 0.00 0.00 43 1009.6
20260505001051 69 175 4.0 10.0 0.00 0.00 0.00 43 1009.7
20260505000548 69 171 4.0 10.0 0.00 0.00 0.00 42 1009.7
20260505000101 70 186 5.0 13.0 0.00 0.00 0.00 42 1009.5
20260504235552 70 205 6.0 15.0 0.00 0.00 0.00 41 1009.5
20260504235048 70 191 8.0 15.0 0.00 0.00 0.00 41 1009.5
20260504234552 70 153 4.0 13.0 0.00 0.00 0.00 41 1009.5
20260504234048 71 165 7.0 13.0 0.00 0.00 0.00 41 1009.4
20260504233550 71 160 4.0 16.0 0.00 0.00 0.00 41 1009.3
20260504233057 71 161 10.0 17.0 0.00 0.00 0.00 39 1009.3
20260504232548 71 177 11.0 17.0 0.00 0.00 0.00 39 1009.3
20260504232047 72 226 9.0 15.0 0.00 0.00 0.00 38 1009.3
20260504231554 72 168 9.0 15.0 0.00 0.00 0.00 38 1009.3
20260504231045 72 171 5.0 9.0 0.00 0.00 0.00 39 1009.4
20260504230545 72 176 4.0 14.0 0.00 0.00 0.00 38 1009.4
20260504230114 72 214 6.0 14.0 0.00 0.00 0.00 37 1009.4
20260504225550 73 224 8.0 14.0 0.00 0.00 0.00 36 1009.4
20260504225051 73 178 8.0 14.0 0.00 0.00 0.00 36 1009.4
20260504224626 72 191 5.0 14.0 0.00 0.00 0.00 37 1009.5
20260504224048 72 179 6.0 15.0 0.00 0.00 0.00 39 1009.4
20260504223548 73 165 5.0 15.0 0.00 0.00 0.00 37 1009.3
20260504223054 73 151 8.0 15.0 0.00 0.00 0.00 37 1009.3
20260504222548 72 137 8.0 15.0 0.00 0.00 0.00 38 1009.4
20260504222048 73 200 8.0 15.0 0.00 0.00 0.00 36 1009.4
20260504221556 73 179 6.0 18.0 0.00 0.00 0.00 38 1009.4
20260504221048 73 200 9.0 18.0 0.00 0.00 0.00 38 1009.4
20260504220548 73 189 5.0 17.0 0.00 0.00 0.00 36 1009.5
20260504220104 73 191 6.0 17.0 0.00 0.00 0.00 36 1009.4
20260504215545 74 195 10.0 17.0 0.00 0.00 0.00 36 1009.4
20260504215049 74 211 8.0 17.0 0.00 0.00 0.00 35 1009.4
20260504214555 74 150 10.0 17.0 0.00 0.00 0.00 36 1009.4
20260504214048 73 150 10.0 16.0 0.00 0.00 0.00 35 1009.4
20260504213547 73 189 8.0 16.0 0.00 0.00 0.00 35 1009.5
20260504213102 74 200 8.0 20.0 0.00 0.00 0.00 37 1009.5
20260504212548 74 181 10.0 20.0 0.00 0.00 0.00 35 1009.5
20260504212048 74 200 7.0 17.0 0.00 0.00 0.00 36 1009.4
20260504211600 74 191 10.0 17.0 0.00 0.00 0.00 36 1009.4
20260504211050 74 171 9.0 17.0 0.00 0.00 0.00 38 1009.5
20260504210550 74 165 9.0 15.0 0.00 0.00 0.00 37 1009.5
20260504205550 74 228 6.0 15.0 0.00 0.00 0.00 36 1009.5
20260504205047 74 230 6.0 15.0 0.00 0.00 0.00 36 1009.6
20260504204605 74 181 10.0 15.0 0.00 0.00 0.00 38 1009.5
20260504204048 74 121 6.0 15.0 0.00 0.00 0.00 36 1009.5
20260504203548 74 224 9.0 15.0 0.00 0.00 0.00 39 1009.6
20260504203056 74 263 7.0 13.0 0.00 0.00 0.00 39 1009.7
20260504202548 74 153 8.0 15.0 0.00 0.00 0.00 38 1009.8
20260504202046 74 205 6.0 15.0 0.00 0.00 0.00 38 1009.9
20260504201610 73 163 9.0 16.0 0.00 0.00 0.00 37 1010.0
20260504201047 73 245 8.0 17.0 0.00 0.00 0.00 37 1010.0
20260504200547 73 285 8.0 17.0 0.00 0.00 0.00 38 1010.1
20260504200104 73 225 6.0 14.0 0.00 0.00 0.00 39 1010.2
20260504195548 73 195 3.0 14.0 0.00 0.00 0.00 40 1010.2
20260504195046 73 227 8.0 18.0 0.00 0.00 0.00 36 1010.1
20260504194558 73 285 6.0 18.0 0.00 0.00 0.00 37 1010.3
20260504194049 73 260 5.0 13.0 0.00 0.00 0.00 41 1010.4
20260504193545 73 253 7.0 13.0 0.00 0.00 0.00 37 1010.4
20260504193050 73 259 6.0 19.0 0.00 0.00 0.00 39 1010.6
20260504192548 73 68 9.0 19.0 0.00 0.00 0.00 37 1010.6
20260504192048 73 149 7.0 25.0 0.00 0.00 0.00 41 1010.7
20260504191607 73 259 12.0 25.0 0.00 0.00 0.00 36 1010.8
20260504191048 72 190 7.0 19.0 0.00 0.00 0.00 40 1010.9
20260504190549 72 159 4.0 19.0 0.00 0.00 0.00 38 1011.1
20260504190049 72 221 8.0 16.0 0.00 0.00 0.00 38 1011.2
20260504185544 71 215 6.0 15.0 0.00 0.00 0.00 39 1011.3
20260504185048 72 205 6.0 16.0 0.00 0.00 0.00 39 1011.4
20260504184553 71 244 9.0 18.0 0.00 0.00 0.00 39 1011.6
20260504184047 71 215 12.0 18.0 0.00 0.00 0.00 37 1011.5
20260504183547 71 191 10.0 18.0 0.00 0.00 0.00 37 1011.7
20260504183053 72 280 7.0 17.0 0.00 0.00 0.00 38 1011.7
20260504182547 71 209 6.0 14.0 0.00 0.00 0.00 38 1011.8
20260504182047 71 205 5.0 14.0 0.00 0.00 0.00 39 1011.8
20260504181553 71 221 4.0 16.0 0.00 0.00 0.00 36 1011.9
20260504181048 71 258 8.0 16.0 0.00 0.00 0.00 39 1012.0
20260504180549 71 180 7.0 16.0 0.00 0.00 0.00 38 1012.1
20260504180051 71 219 9.0 16.0 0.00 0.00 0.00 36 1012.2
20260504175548 71 186 7.0 14.0 0.00 0.00 0.00 43 1012.1
20260504175048 70 142 7.0 16.0 0.00 0.00 0.00 38 1012.2
20260504174556 70 178 10.0 16.0 0.00 0.00 0.00 39 1012.3
20260504174047 70 205 9.0 16.0 0.00 0.00 0.00 39 1012.3
20260504173547 70 187 6.0 12.0 0.00 0.00 0.00 37 1012.3
20260504173052 70 307 6.0 12.0 0.00 0.00 0.00 37 1012.3
20260504172548 70 249 7.0 14.0 0.00 0.00 0.00 37 1012.3
20260504172048 70 264 7.0 18.0 0.00 0.00 0.00 38 1012.4
20260504171552 69 179 9.0 18.0 0.00 0.00 0.00 37 1012.4
20260504171048 70 177 10.0 18.0 0.00 0.00 0.00 39 1012.5
20260504170547 69 217 7.0 13.0 0.00 0.00 0.00 39 1012.5
20260504151047 66 195 5.0 14.0 0.00 0.00 0.00 41 1014.0
20260504150550 65 227 5.0 14.0 0.00 0.00 0.00 42 1014.0
20260504141045 62 249 6.0 14.0 0.00 0.00 0.00 48 1014.1
20260504140547 61 182 8.0 14.0 0.00 0.00 0.00 45 1014.1
20260504130548 57 200 3.0 10.0 0.00 0.00 0.00 55 1014.3
20260504120119 51 232 2.0 10.0 0.00 0.00 0.00 67 1014.6
20260504110548 45 200 2.0 4.0 0.00 0.00 0.00 76 1014.5
20260504100545 44 0 0.0 2.0 0.00 0.00 0.00 72 1014.6
20260504081554 39 0 0.0 1.0 0.00 0.00 0.00 82 1015.1
20260504081050 39 0 0.0 2.0 0.00 0.00 0.00 82 1015.2
20260504080545 39 0 0.0 2.0 0.00 0.00 0.00 82 1015.2